www.pogodaiklimat.ru

Погода и климат >> Архив погоды >> Россия >> Курганская область >> Целинное


ПОГОДА в Целинном

  • Прогноз погоды в Целинном
  • Монитор погоды в Целинном

АРХИВ ПОГОДЫ в Целинном

Время (UTC), дата Ветер
(напр.,м/с)
 
Видим.   Явления Облачность Т
(С)
Тd
(С)
f
(%)
Тe
(С)
Тes
(С)
Комфортность P
(гПа)
Po
(гПа)
Тmin
(С)
Tmax
(С)
R
(мм)
R24
(мм)
S
(см)
21 10.02 штиль 0 н/о н/о -13.0 -15.3 83 -13 -13 1024.1 1004.9
03 11.02 СЗ 2 10 км 10/10 600 м
[Sc]
-9.0 -11.2 84 -13 -13 1025.9 1006.9 -16.6 0.4 41
09 11.02 З 2 50 км 10/10 600 м
[Sc]
-4.8 -8.1 78 -9 -9 1027.2 1008.5
15 11.02 штиль 0 10 км ясно -13.2 -15.2 85 -13 -13 1028.7 1009.3 -4.5
21 11.02 Ю 1 н/о н/о -14.1 -16.5 82 -17 -17 1029.0 1009.5
03 12.02 штиль 0 10 км 8/8 600 м
[Sc]
-20.2 -23.0 78 -20 -20 1031.5 1011.5 -20.6 41
09 12.02 ЮЗ 2 50 км ясно -7.4 -12.5 67 -12 -9 1032.0 1013.0
15 12.02 штиль 0 10 км 1/0
[Ci]
-18.9 -21.4 81 -19 -19 1034.3 1014.4 -6.0
21 12.02 Ю 1 н/о н/о -19.3 -22.1 78 -22 -22 1035.7 1015.7
03 13.02 Ю 1 10 км ясно -22.3 -25.2 77 -26 -26 1036.2 1016.0 -23.2 41
09 13.02 Ю 2 50 км 1/0
[Ci]
-12.2 -18.0 62 -17 -14 1035.5 1016.0
15 13.02 штиль 0 10 км ясно -18.3 -20.9 80 -18 -18 1035.5 1015.6 -11.2
21 13.02 ЮВ 2 н/о н/о -20.4 -23.2 78 -26 -26 1034.4 1014.3
03 14.02 ЮВ 2 10 км 10/0
[Ci]
-21.4 -24.3 77 -27 -27 1032.9 1012.8 -21.7 40
09 14.02 Ю 3 50 км 10/0
[Ci]
-12.4 -16.9 69 -18 -17 1029.9 1010.5
15 14.02 В 2 10 км 3/0
[Ci]
-18.4 -20.9 81 -24 -24 1027.5 1007.8 -9.8
21 14.02 ЮВ 2 н/о н/о -22.2 -25.2 77 -28 -28 1023.7 1003.7
03 15.02 ЮВ 1 10 км 9/9 600 м
[Sc]
-18.2 -20.9 79 -21 -21 1018.3 998.7 -22.7 40
09 15.02 ЮЗ 3 20 км {снег} 9/9 600 м
[Sc]
-8.2 -11.9 75 -14 -14 1015.9 997.2
15 15.02 ЮВ 1 10 км ясно -17.1 -19.5 82 -20 -20 1015.5 996.1 -7.3 0.0
21 15.02 ЮВ 2 н/о н/о -21.8 -24.7 77 -28 -28 1013.3 993.5
03 16.02 Ю 2 10 км 10/3 600 м
[Sc Ac trans]
-15.6 -18.2 80 -21 -21 1009.4 990.2 -23.0 37
09 16.02 ЮЗ 4 4000 м слаб. снег 10/0
[As trans]
-6.4 -9.7 77 -13 -12 1005.7 987.3
12 16.02 ЮЗ 4 20 км {снег} 9/9 600 м
[Sc]
-6.9 -10.1 78 -13 -13 1005.0 986.5
15 16.02 Ю 4 10 км 8/0
[Ci]
-9.1 -11.5 83 -16 -16 1004.5 985.9 -6.3 0.3
21 16.02 ЮЗ 2 н/о н/о -11.5 -13.7 84 -16 -16 1003.5 984.7
03 17.02 ЮВ 1 10 км 9/6 600 м
[Sc Ci]
-18.1 -20.7 80 -21 -21 1002.5 983.3 -18.3 37
09 17.02 Ю 2 50 км 10/5 600 м
[Sc Ci]
-7.1 -11.4 71 -11 -10 1000.8 982.3
15 17.02 ЮВ 1 10 км ясно -14.5 -16.7 83 -17 -17 999.9 981.0 -5.1

 

Местоположение метеостанции Целинное (Курганская область, Россия): широта 54.50 долгота 63.67 высота над уровнем моря 145 м.

В архиве по умолчанию представлена погода в Целинном за последнюю неделю. Архивные данные за месяц целиком и за предыдущие месяцы, начиная с января 2011 года, Вы можете получить, выбрав интересующий диапазон дат из раскрывающегося списка и нажав кнопку "Ввод!".


*Определитесь, кто Вы:
робот инопланетянин человек

Внимание! Время в таблицах - всемирное. Для получения местного времени необходимо прибавить поправку, которая равна 5 ч.

Смотрите также архив погоды в соседних городах и на ближайших метеорологических станциях:

Погода в Октябрьском (Челябинская область, Россия) (63 км)
Погода в Куртамыше (Курганская область, Россия) (68 км)
Погода в Звериноголовском (Курганская область, Россия) (78 км)
Погода в Шумихе (Курганская область, Россия) (84 км)
Погода в Карабалыке (Костанайская область, Казахстан) (130 км)
Погода в Пресногорьковке (Костанайская область, Казахстан) (136 км)
Погода в Троицке (Челябинская область, Россия) (141 км)
Погода в Костанае (Костанайская область, Казахстан) (142 км)
Погода в Костанае 2 (Костанайская область, Казахстан) (145 км)
Погода в Южноуральске (Челябинская область, Россия) (150 км)

Пояснения к столбцам:

Ветер - указаны скорость ветра в м/с - средняя за 10 мин, порывы в срок и между сроками (в фигурных скобках) и направление, откуда дует ветер: С - северный, СВ - северо-восточный, В - восточный, ЮВ - юго-восточный, Ю - южный, ЮЗ - юго-западный, З - западный, СЗ - северо-западный.
Видимость - горизонтальная дальность видимости в метрах или километрах. При видимости от 1 до 10 км при отсутствии осадков обычно наблюдается дымка, при ухудшении видимости до 1 км и менее - туман. В сухую погоду видимость может ухудшаться дымом, пылью или мглою.
Явления - указаны атмосферные явления, наблюдавшиеся в срок или в последний час перед сроком; фигурными скобками обозначены явления, наблюдавшиеся между сроками (за 1-3 часа до срока); квадратными скобками обозначены град или гололедные отложения с указанием их диаметра в мм.
Облачность - указаны через наклонную черту общая и нижняя облачность в баллах и высота нижней границы облаков в метрах; квадратными скобками обозначены формы облаков: Ci - перистые, Cs - перисто-слоистые, Cc - перисто-кучевые, Ac - высококучевые, As - высокослоистые, Sc - слоисто-кучевые, Ns - слоисто-дождевые, Cu - кучевые, Cb - кучево-дождевые. Подробнее классификацию облаков см. в Атласе облаков (PDF).
T - Температура воздуха - температура, измеренная на высоте 2 м над землей.
Td - Температура точки росы - температура, при понижении до которой содержащийся в воздухе водяной пар достигнет насыщения.
f - Относительная влажность воздуха - влажноcть воздуха, измеренная на высоте 2 м над землей.
Te - Эффективная температура - температура, которую ощущает одетый по сезону человек в тени. Характеристика душности погоды. При расчете учитывается влияние влажности воздуха и скорости ветра на теплоощущения человека.
Tes - Эффективная температура на солнце - температура, которую ощущает человек, с поправкой на солнечный нагрев. Характеристика знойности погоды. Зависит от высоты солнца над горизонтом, облачности и скорости ветра. Ночью, в пасмурную погоду, а также при ветре 12 м/с и более поправка равна нулю.
P - Атмосферное давление - приведенное к уровню моря атмосферное давление.
Po - Атмосферное давление - измеренное на уровне метеостанции атмосферное давление.
Tmin - Минимальная температура - минимум температуры воздуха на высоте 2 м над землей.
Tmax - Максимальная температура - максимум температуры воздуха на высоте 2 м над землей.
R - Количество осадков - Количество выпавших осадков за период времени, мм. При наведении курсора мыши на число - период времени, за который выпало указанное количество осадков.
R24 - Количество осадков - Количество выпавших осадков за 24 часа, мм.
S - Снежный покров - Высота снежного покрова, см. При наведении курсора мыши на число - состояние снежного покрова и степень покрытия местности в баллах.